{"data":{"norad_id":52565,"epoch":"2026-05-25T03:38:57.337728Z","epoch_age_seconds":55171,"freshness":"FRESH","line1":"1 52565U 22051AJ  26145.15205252  .00000335  00000+0  39146-4 0  9990","line2":"2 52565  53.2150 135.8682 0001151  76.4722 283.6398 15.08839881223120","mean_motion":15.08839881,"eccentricity":0.0001151,"inclination_deg":53.215,"raan_deg":135.8682,"arg_perigee_deg":76.4722,"mean_anomaly_deg":283.6398,"bstar":3.9146e-5,"rev_number":22312,"period_min":95.437562204786,"perigee_km":538.94750462489,"apogee_km":540.54000077416,"semimajor_km":6917.8807526995,"source":"CELESTRAK","updated_at":"2026-05-25T13:38:17.167491Z"}}